Location: Cahas Mountain Overlook
(37.0833°N, 80.1000°W)
Time: 19:05:37
(UTC-05:00)

Vanguard 3 - Pass Details

Date: 06 December 2023
Orbit: 508 x 3239 km, 33.4° (Epoch: 23 February)

Event Time Altitude Azimuth Distance (km) Brightness Sun altitude
Rises 21:04:37 0° 237° (WSW) 6,842 12.3 -47.4°
Reaches altitude 10° 21:09:49 10° 233° (SW) 5,526 11.7 -48.4°
Enters shadow 21:19:35 38° 213° (SSW) 3,030 9.9 -50.4°
